Airfield :
LOGIN :

Register | Disclaimer

   EN    FR    IT 

 










Legend :    VFR   Marginal VFR   IFR   Intensive IFR   Very Intensive IFR
Visi :
Ceiling :
>= 8 km
>= 3000ft
5 to 8 km
1000 to 3000 ft
1500m to 5 km
500 to 1000 ft
800 to 1500m
200 to 500 ft
< 800m
< 200 ft
Symbols :   Thunderstorms  Fog  Heavy snow  Heavy precipitations  Wind > 20 kt
SIGMETs :     Misc.  Thunderstorms  Icing  Turbulence  Mountain Waves  Volcanic Ashes







- Airport Elevation : 1249 ft


ETSN - Neuburg AB

CURRENT METAR :
  • 180020Z 26005KT 9999 BKN050 00/M02 Q1025 BLU

EXPIRED METARs :
  • 172320Z 26009KT 9999 FEW020 BKN055 00/M02 Q1025 BLU
  • 172220Z 25007KT 9999 -SN FEW020 BKN056 00/M02 Q1025 BLU

TAF TAF ETSN
Valid from the 18 at 00:00 until the 18 at 09:00 UTC


172300Z 1800/1809 23005KT 9999 NSW FEW020 BKN040 BY ETGL
No reported NOTAMs for that airfield.



MET'MAP, your aeronautical weather chart ! - Copyright ORBIFLY December 2007 - Disclaimer

ORBIFLY MET'MAP TEAM :

Programming & Development : Alexandra Zaïnal
Concept & Development : Baudouin d'Aumeries
Co-Development & Prog : Marc-Olivier Méhu
Technical & hardware support : Manuel Goepfert

Contact : metmap@orbifly.com




SOURCES & CREDITS :

   NOAA